Weather observations for the past three days for
Everett Snohomish County
| Date | Time (pdt) | Wind (mph) | Vis. (mi.) | Weather | Sky Cond. | Temperature (ºF) | Relative Humidity | Wind Chill (°F) | Heat Index (°F) | Pressure | Precipitation (in) | ||||||
|---|---|---|---|---|---|---|---|---|---|---|---|---|---|---|---|---|---|
| Air | Dwpt | 6 hour | altimeter (in) | sea level (mb) | 1 hr | 3 hr | 6 hr | ||||||||||
| Max. | Min. | ||||||||||||||||
| 02 | 12:53 | NW 9 G 20 | 10.00 | Fair | CLR | 62.1 | 51.1 | 67% | 30.03 | 1016.8 | |||||||
| 02 | 11:53 | NW 10 G 20 | 10.00 | Fair | CLR | 60.1 | 51.1 | 72% | 30.03 | 1016.9 | |||||||
| 02 | 10:53 | N 9 G 18 | 10.00 | Partly Cloudy | SCT007 | 57.9 | 51.1 | 57.9 | 50 | 78% | 30.04 | 1017.4 | |||||
| 02 | 09:53 | N 10 | 10.00 | Mostly Cloudy | BKN007 | 55 | 50 | 83% | 30.05 | 1017.5 | |||||||
| 02 | 08:53 | N 10 | 10.00 | Fair | CLR | 54 | 48.9 | 83% | 30.04 | 1017.2 | |||||||
| 02 | 07:53 | NW 5 | 10.00 | Mostly Cloudy | BKN110 | 52 | 48.9 | 89% | 30.04 | 1017.4 | |||||||
| 02 | 06:53 | N 3 | 10.00 | Fog/Mist | BKN110 | 50 | 48.9 | 96% | 30.04 | 1017.1 | |||||||
| 02 | 05:53 | N 5 | 8.00 | A Few Clouds | FEW110 | 50 | 48 | 93% | 49 | 30.04 | 1017.1 | ||||||
| 02 | 04:53 | Calm | 10.00 | Partly Cloudy | SCT110 | 51.1 | 48 | 54 | 48.9 | 89% | 30.05 | 1017.4 | |||||
| 02 | 03:53 | N 3 | 10.00 | Fair | CLR | 50 | 46.9 | 89% | 30.02 | 1016.7 | |||||||
| 02 | 02:53 | Calm | 10.00 | Fair | CLR | 50 | 48 | 93% | 30.03 | 1017.0 | |||||||
| 02 | 01:53 | N 5 | 10.00 | Partly Cloudy | SCT110 | 51.1 | 48 | 89% | 30.03 | 1016.8 | |||||||
| 02 | 00:53 | N 7 | 10.00 | Mostly Cloudy | BKN110 | 52 | 46.9 | 83% | 30.03 | 1016.8 | |||||||
| 01 | 23:53 | N 8 | 10.00 | A Few Clouds | FEW110 | 52 | 46.9 | 83% | 30.02 | 1016.5 | |||||||
| 01 | 22:53 | N 8 | 10.00 | Fair | CLR | 54 | 45 | 64.9 | 54 | 72% | 30.02 | 1016.4 | |||||
| 01 | 21:53 | N 6 | 10.00 | Fair | CLR | 55 | 43 | 64% | 30.01 | 1016.2 | |||||||
| 01 | 20:53 | N 10 | 10.00 | Mostly Cloudy | FEW043 SCT085 BKN110 | 55 | 44.1 | 67% | 30 | 1015.7 | |||||||
| 01 | 19:53 | N 7 | 10.00 | Light Rain | SCT070 BKN095 OVC120 | 55.9 | 48 | 75% | 29.98 | 1015.3 | |||||||
| 01 | 18:53 | N 7 | 10.00 | Mostly Cloudy | BKN110 | 59 | 46.9 | 64% | 29.97 | 1014.9 | |||||||
| 01 | 17:53 | N 8 G 16 | 10.00 | Fair | CLR | 64 | 48.9 | 58% | 29.98 | 1015.1 | |||||||
| 01 | 16:53 | N 9 | 10.00 | Mostly Cloudy | BKN120 | 64.9 | 50 | 64.9 | 59 | 59% | 29.97 | 1014.9 | |||||
| 01 | 15:53 | N 10 | 10.00 | Mostly Cloudy | BKN120 | 64.9 | 48 | 54% | 29.99 | 1015.3 | |||||||
| 01 | 14:53 | N 9 | 10.00 | Partly Cloudy | SCT110 | 64.9 | 48.9 | 56% | 30 | 1015.7 | |||||||
| 01 | 13:53 | N 8 | 10.00 | Fair | CLR | 63 | 48.9 | 60% | 30.01 | 1016.1 | |||||||
| 01 | 12:53 | N 9 | 10.00 | Fair | CLR | 60.1 | 48.9 | 67% | 30.01 | 1016.3 | |||||||
| 01 | 11:53 | NW 5 | 10.00 | Fair | CLR | 62.1 | 50 | 65% | 30.03 | 1016.8 | |||||||
| 01 | 10:53 | Vrbl 6 | 10.00 | Fair | CLR | 61 | 48 | 61 | 51.1 | 63% | 30.04 | 1017.2 | |||||
| 01 | 09:53 | N 6 | 10.00 | Fair | CLR | 55.9 | 46 | 70% | 30.05 | 1017.5 | |||||||
| 01 | 08:53 | N 6 | 10.00 | Fair | CLR | 55 | 46.9 | 74% | 30.05 | 1017.7 | |||||||
| 01 | 07:53 | N 7 | 10.00 | Fair | CLR | 52 | 48 | 86% | 30.05 | 1017.6 | |||||||
| 01 | 06:53 | N 6 | 10.00 | Fair | CLR | 52 | 46.9 | 83% | 30.03 | 1016.9 | |||||||
| 01 | 05:53 | N 5 | 10.00 | Fair | CLR | 52 | 43 | 72% | 30.02 | 1016.5 | |||||||
| 01 | 04:53 | N 3 | 10.00 | Fair | CLR | 51.1 | 44.1 | 57 | 50 | 77% | 30.02 | 1016.5 | |||||
| 01 | 03:53 | N 5 | 10.00 | Fair | CLR | 52 | 44.1 | 75% | 30.02 | 1016.4 | |||||||
| 01 | 02:53 | N 7 | 10.00 | Fair | CLR | 52 | 46.9 | 83% | 30.02 | 1016.5 | |||||||
| 01 | 01:53 | N 5 | 10.00 | Fair | CLR | 54 | 46 | 75% | 30.02 | 1016.5 | |||||||
| 01 | 00:53 | NE 3 | 10.00 | Fair | CLR | 55 | 46.9 | 74% | 30.03 | 1016.7 | |||||||
| 30 | 23:53 | NE 6 | 10.00 | Mostly Cloudy | BKN100 | 57 | 45 | 64% | 30.03 | 1016.7 | |||||||
| 30 | 22:53 | N 10 | 10.00 | Fair | CLR | 54 | 45 | 68 | 54 | 72% | 30.03 | 1016.9 | |||||
| 30 | 21:53 | N 5 | 10.00 | Fair | CLR | 55 | 48 | 77% | 30.03 | 1017.0 | |||||||
| 30 | 20:53 | N 5 | 10.00 | Fair | CLR | 60.1 | 48.9 | 67% | 30.02 | 1016.5 | |||||||
| 30 | 19:53 | Calm | 10.00 | Fair | CLR | 63 | 50 | 63% | 30.02 | 1016.4 | |||||||
| 30 | 18:53 | NW 5 | 10.00 | Fair | CLR | 66 | 48.9 | 54% | 30.02 | 1016.5 | |||||||
| 30 | 17:53 | N 7 | 10.00 | Fair | CLR | 68 | 48.9 | 51% | 30.03 | 1016.9 | |||||||
| 30 | 16:53 | N 7 | 10.00 | Fair | CLR | 66 | 48 | 69.1 | 60.1 | 52% | 30.05 | 1017.5 | |||||
| 30 | 15:53 | N 9 | 10.00 | Fair | CLR | 66 | 50 | 56% | 30.07 | 1018.2 | |||||||
| 30 | 14:53 | Vrbl 5 | 10.00 | Fair | CLR | 68 | 50 | 53% | 30.08 | 1018.7 | |||||||
| 30 | 13:53 | N 6 | 10.00 | Fair | CLR | 66.9 | 48.9 | 53% | 30.09 | 1019.1 | |||||||
| 30 | 12:53 | N 6 | 10.00 | Fair | CLR | 64.9 | 48 | 54% | 30.11 | 1019.6 | |||||||
| 30 | 11:53 | N 8 | 10.00 | Fair | CLR | 61 | 46.9 | 60% | 30.13 | 1020.1 | |||||||
| 30 | 10:53 | N 8 | 10.00 | Fair | CLR | 60.1 | 46 | 60.1 | 46.9 | 60% | 30.15 | 1020.8 | |||||
| 30 | 09:53 | N 7 | 10.00 | Fair | CLR | 57.9 | 46.9 | 67% | 30.16 | 1021.3 | |||||||
| 30 | 08:53 | N 3 | 10.00 | Fair | CLR | 55.9 | 48 | 75% | 30.16 | 1021.4 | |||||||
| 30 | 07:53 | Calm | 10.00 | Fair | CLR | 52 | 46.9 | 83% | 30.17 | 1021.7 | |||||||
| 30 | 06:53 | N 3 | 10.00 | Fair | CLR | 48.9 | 46 | 90% | 30.17 | 1021.6 | |||||||
| 30 | 05:53 | Calm | 10.00 | Fair | CLR | 46.9 | 45 | 93% | 30.17 | 1021.6 | |||||||
| 30 | 04:53 | N 5 | 10.00 | Fair | CLR | 46.9 | 46 | 51.1 | 46 | 97% | 45 | 30.17 | 1021.8 | ||||
| 30 | 03:53 | N 5 | 10.00 | Fair | CLR | 46.9 | 45 | 93% | 45 | 30.17 | 1021.7 | ||||||
| 30 | 02:53 | Calm | 10.00 | Fair | CLR | 46.9 | 45 | 93% | 30.17 | 1021.9 | |||||||
| 30 | 01:53 | N 3 | 10.00 | Fair | CLR | 48.9 | 46 | 90% | 30.18 | 1022.1 | |||||||
| 30 | 00:53 | N 6 | 10.00 | Fair | CLR | 50 | 45 | 83% | 48 | 30.19 | 1022.4 | ||||||
| 29 | 23:53 | N 3 | 10.00 | Fair | CLR | 51.1 | 45 | 80% | 30.2 | 1022.6 | |||||||
| 29 | 22:53 | N 3 | 10.00 | Fair | CLR | 51.1 | 45 | 62.1 | 51.1 | 80% | 30.19 | 1022.5 | |||||
| 29 | 21:53 | Calm | 10.00 | Fair | CLR | 53.1 | 45 | 74% | 30.2 | 1022.8 | |||||||
| 29 | 20:53 | NW 3 | 10.00 | Fair | CLR | 55 | 45 | 69% | 30.19 | 1022.5 | |||||||
| 29 | 19:53 | NW 5 | 10.00 | Fair | CLR | 57.9 | 46 | 65% | 30.19 | 1022.3 | |||||||
| 29 | 18:53 | NW 6 | 10.00 | Fair | CLR | 60.1 | 46 | 60% | 30.19 | 1022.4 | |||||||
| 29 | 17:53 | N 8 G 18 | 10.00 | Fair | CLR | 61 | 46.9 | 60% | 30.2 | 1022.7 | |||||||
| 29 | 16:53 | N 10 G 20 | 10.00 | Fair | CLR | 61 | 46 | 61 | 54 | 58% | 30.2 | 1022.7 | |||||
| 29 | 15:53 | NW 10 G 21 | 10.00 | Fair | CLR | 60.1 | 46.9 | 62% | 30.22 | 1023.3 | |||||||
| 29 | 14:53 | N 9 | 10.00 | Fair | CLR | 61 | 46.9 | 60% | 30.23 | 1023.9 | |||||||
| 29 | 13:53 | N 9 | 10.00 | Fair | CLR | 60.1 | 45 | 58% | 30.24 | 1024.1 | |||||||
| Date | Time (pdt) | Wind (mph) | Vis. (mi.) | Weather | Sky Cond. | Air | Dwpt | Max. | Min. | Relative Humidity | Wind Chill (°F) | Heat Index (°F) | altimeter (in) | sea level (mb) | 1 hr | 3 hr | 6 hr |
| 6 hour | |||||||||||||||||
| Temperature (ºF) | Pressure | Precipitation (in) | |||||||||||||||